Location: Columbus
(29.5618°N, 96.6770°W)
Time: 21:37:41
(UTC-05:00)

Iridium 59 - Visible Passes

Search period start: 02 August 2015 00:00
Search period end: 12 August 2015 00:00
Orbit: 776 x 779 km, 86.4° (Epoch: 02 August)

Date Brightness Start Highest point End Pass type
(mag) Time Alt. Az. Time Alt. Az. Time Alt. Az.
03 Aug 6.1 06:17:07 10° N 06:22:10 52° E 06:27:15 10° SSE visible
04 Aug 7.4 05:44:15 10° NNE 05:48:30 26° E 05:52:52 10° SE visible
05 Aug 8.0 05:12:31 10° NE 05:14:39 13° ENE 05:17:08 10° ESE visible
06 Aug 5.2 06:17:04 10° N 06:22:18 80° E 06:27:31 10° S visible
07 Aug 6.5 05:43:53 10° NNE 05:48:43 39° E 05:53:35 10° SSE visible
08 Aug 7.7 05:11:18 10° NE 05:14:58 20° E 05:18:49 10° SE visible
09 Aug 5.0 06:17:12 10° N 06:22:22 67° W 06:27:32 10° S visible
10 Aug 5.6 05:43:43 10° N 05:48:52 60° E 05:54:01 10° SSE visible
11 Aug 6.9 05:10:44 10° NNE 05:15:14 30° E 05:19:48 10° SE visible
